Temperature
21 19 18 18 18 18 18 18 18 17 17 17 17 17 17 17 17 17 17 17 17 17 17 17 17 17 17 17 17 17 17 17 17 17 17 17 17 17 17 17 17 17 16
21 19 19 18 18 18 18 18 18 17 17 17 17 17 17 17 17 17 17 17 17 17 17 17 17 17 17 17 17 17 17 17 17 17 18 18 18 17 18 17 17 17 17
21 20 19 19 18 18 18 18 18 17 17 17 17 17 17 17 17 17 17 17 17 17 17 17 17 17 17 17 17 17 17 17 17 17 18 19 19 19 18 17 17 17 17
21 20 19 19 19 18 18 18 18 17 17 17 17 17 17 17 17 17 17 17 17 17 17 17 17 17 17 17 17 17 17 17 17 17 17 18 18 19 19 18 18 17 17
22 20 19 19 19 18 18 18 17 17 17 17 17 17 17 17 17 17 17 17 17 17 17 17 17 17 17 17 17 17 17 17 17 18 18 17 18 18 19 19 18 18 18
22 20 19 19 18 18 18 17 17 17 17 17 17 17 17 17 17 17 17 17 17 17 17 17 17 17 17 16 16 17 17 17 17 17 18 18 18 19 19 19 18 18 18
22 20 19 19 18 18 18 17 17 17 17 17 17 17 17 17 17 17 17 17 17 17 17 17 17 16 16 16 16 16 17 16 16 17 17 18 18 18 18 19 19 18 18
22 21 20 19 18 18 18 17 17 17 17 17 17 17 17 17 17 17 17 17 17 17 17 17 17 16 16 16 16 16 16 16 16 16 16 17 17 17 18 18 18 19 18
22 21 20 19 18 18 18 18 17 17 17 17 17 17 17 17 16 17 17 17 17 17 17 17 16 16 16 16 16 16 16 16 16 16 16 16 17 17 17 17 18 18 18
22 21 20 19 18 18 18 17 17 17 17 17 17 17 17 17 17 16 16 16 16 16 16 16 16 16 16 16 16 16 16 16 16 16 16 16 16 16 16 16 17 17 17
22 21 20 19 18 18 18 17 17 17 17 17 17 17 17 17 17 16 16 16 16 16 16 16 16 16 16 16 16 16 15 15 15 15 15 16 16 16 16 16 16 16 16
22 21 19 19 18 18 18 17 17 17 17 17 17 17 17 17 16 16 16 16 16 16 16 16 16 16 16 16 15 15 15 15 15 15 15 15 15 15 15 15 15 15 15
21 20 19 19 18 18 18 17 17 17 17 17 17 17 16 16 16 16 16 16 16 16 16 16 16 15 15 15 15 15 15 15 15 15 15 15 15 15 15 14 14 14 14
20 20 19 18 18 18 17 17 17 17 17 16 16 16 16 16 16 16 16 16 16 16 16 16 15 15 15 15 15 15 15 15 14 14 14 14 14 14 14 14 14 13 13
20 19 19 18 17 17 17 17 17 16 16 16 16 16 16 16 16 16 16 16 15 15 15 15 15 15 15 15 15 15 14 14 14 14 13 13 13 13 13 13 13 13 12
20 19 18 18 17 17 17 17 16 16 16 16 16 16 16 16 15 15 15 15 15 15 15 15 15 15 14 14 14 14 14 13 13 13 13 13 12 12 12 12 12 12 12
19 19 18 17 17 17 17 16 16 16 16 16 16 16 16 15 15 15 15 15 15 15 15 15 14 14 14 14 14 14 13 13 13 12 12 11 11 11 11 11 11 11 11
18 18 17 17 17 17 17 16 16 16 16 16 16 15 15 15 15 15 15 15 15 14 14 14 14 14 13 13 13 13 12 12 12 11 11 11 10 10 10 9 9 9 9
18 17 17 17 17 16 16 16 16 16 16 15 15 15 15 15 15 14 14 14 14 14 14 13 13 13 13 12 12 12 12 11 11 10 10 10 10 9 9 8 8 8 8
17 16 16 17 16 16 16 16 16 15 15 15 15 15 14 14 14 14 14 14 13 13 13 13 12 12 12 11 11 11 11 10 10 9 9 9 9 8 8 7 7 7 7
16 16 16 16 16 16 16 15 15 15 15 14 14 14 14 14 14 14 13 13 13 12 12 12 11 11 11 10 10 10 10 9 9 8 8 8 7 7 7 7 7 7 6
15 15 15 15 15 15 15 15 15 15 14 14 14 14 13 13 13 13 13 12 12 12 11 11 10 10 10 9 9 9 9 8 8 7 7 7 7 6 6 6 6 6 5
14 14 14 14 15 14 14 14 14 14 14 14 13 13 13 13 13 13 12 12 11 11 11 10 9 9 8 8 8 8 8 8 7 7 6 6 6 5 5 5 5 5 5
14 14 14 14 14 14 14 14 14 14 13 13 13 13 12 12 12 11 11 11 11 10 10 9 9 8 7 7 7 7 6 6 6 6 5 5 5 5 5 4 4 4 4
13 13 13 13 13 13 13 13 13 13 13 12 12 11 11 11 11 10 10 10 10 10 9 9 9 8 7 7 6 6 6 5 5 5 5 5 5 5 4 4 4 4 4
12 12 12 12 12 12 12 12 12 12 12 11 11 11 10 10 10 9 9 9 9 8 8 8 8 7 7 6 6 5 5 5 5 5 5 5 5 5 4 4 4 3 3
Wind_Speed
9 10 11 12 13 13 14 14 14 13 12 10 10 9 9 8 8 7 8 9 9 8 7 6 6 5 5 5 5 4 6 5 4 3 3 4 5 5 5 5 5 6 7
9 10 12 12 13 14 14 14 14 14 13 10 9 8 7 7 7 6 7 9 9 9 9 7 6 6 4 5 5 5 4 4 5 4 3 4 5 5 5 5 6 5 6
10 11 11 12 13 13 14 14 15 14 13 12 9 8 7 6 7 7 7 9 9 9 8 8 7 6 7 6 6 6 6 5 5 4 3 3 3 5 5 5 5 5 5
9 10 10 11 12 12 13 13 14 14 13 12 11 12 11 10 9 8 7 8 9 9 9 8 7 6 6 5 7 7 6 5 5 4 3 3 2 2 3 5 6 6 6
8 9 10 10 10 11 11 11 12 13 13 14 13 12 12 10 8 8 8 8 8 8 9 8 7 7 6 6 6 5 6 6 5 5 5 4 3 4 3 3 4 5 5
8 8 8 9 9 10 10 11 12 12 13 14 13 13 13 11 10 10 9 9 7 7 9 9 8 8 6 6 6 6 7 5 4 4 4 5 4 4 3 3 4 4 4
8 8 8 8 9 10 11 12 12 12 12 13 13 13 12 12 12 11 10 9 8 8 9 9 8 7 6 6 6 6 5 6 5 5 5 4 3 3 3 3 2 2 3
9 9 8 8 8 9 11 11 12 12 12 12 12 11 12 11 10 11 9 9 8 8 9 9 8 8 7 7 6 6 6 5 5 5 3 3 3 3 3 4 4 4 4
9 9 9 9 9 9 10 10 11 11 11 11 10 10 11 10 10 10 10 8 7 8 9 9 9 8 8 7 7 5 5 5 6 5 5 4 3 3 3 3 4 5 5
9 9 9 9 8 8 8 9 10 10 10 10 9 8 9 9 9 9 10 9 9 8 9 9 9 9 8 8 7 6 5 5 4 2 2 3 3 2 2 3 4 4 5
9 9 8 8 8 8 8 8 9 9 9 9 9 8 9 9 10 9 10 9 9 10 10 9 9 9 9 8 7 6 6 6 5 4 4 3 1 1 1 2 2 3 3
9 10 9 9 8 8 8 8 8 9 8 8 8 8 8 8 9 9 9 9 9 9 10 9 9 9 8 8 8 7 7 6 6 5 4 3 2 2 1 1 1 1 2
10 10 9 9 9 8 8 8 8 8 8 8 8 8 8 8 8 8 9 9 9 8 8 8 8 8 8 7 7 6 6 5 4 4 4 3 3 3 2 2 2 1 1
9 10 9 9 8 8 7 7 7 7 8 8 8 8 8 8 8 8 8 8 8 8 8 8 7 7 7 7 7 7 7 6 6 6 6 6 5 5 4 4 3 3 2
9 9 9 9 8 8 7 7 7 7 7 8 8 8 7 7 8 8 8 8 8 8 8 7 7 6 6 6 8 8 9 9 9 9 9 10 11 12 9 5 4 3 2
9 9 8 9 9 8 8 7 7 7 7 8 8 8 8 8 8 8 8 8 8 8 8 8 8 7 6 10 11 10 10 10 10 10 10 11 12 15 17 18 16 12 6
8 8 8 8 7 7 7 7 7 7 8 8 8 8 8 8 9 9 9 9 9 9 9 9 9 9 9 14 14 12 10 10 9 9 9 8 9 10 11 13 14 15 15
7 6 5 6 6 6 7 7 7 8 8 8 8 8 8 8 8 9 9 9 9 9 9 9 10 10 11 14 15 15 12 11 10 9 9 10 9 8 8 9 10 10 10
5 5 5 5 5 6 7 7 8 8 8 8 8 8 9 9 9 10 10 9 10 10 10 10 11 12 11 12 13 13 11 11 11 10 9 9 9 8 6 9 9 9 8
5 4 4 4 5 5 6 8 8 8 8 8 8 8 9 10 10 10 10 10 10 11 11 11 10 11 11 10 11 11 10 11 10 9 10 11 10 9 6 7 7 7 6
5 4 4 4 3 5 6 7 7 7 7 8 8 8 9 10 11 10 10 11 11 12 12 12 11 10 10 10 9 8 8 10 10 9 9 9 12 12 12 9 8 5 2
5 4 4 3 3 4 6 7 7 7 7 8 9 9 10 9 10 12 11 12 13 13 12 12 11 9 8 8 10 11 9 8 10 9 10 10 13 13 12 9 6 3 4
4 3 4 4 3 2 4 6 6 7 9 9 10 10 11 10 10 11 12 11 10 10 10 11 11 9 8 10 13 14 13 12 10 11 14 13 13 12 10 8 2 2 4
4 4 4 4 4 3 3 5 6 8 10 11 11 11 11 11 10 8 8 9 9 10 10 10 11 10 9 9 9 10 12 14 13 12 14 11 7 7 7 5 3 5 6
3 4 4 4 4 4 5 5 7 9 11 12 11 11 11 11 11 10 8 8 8 7 9 10 11 11 10 8 8 8 8 9 10 10 8 7 6 5 5 5 5 4 4
4 5 5 5 5 5 6 6 8 10 12 12 11 10 11 11 11 12 13 19 16 18 16 13 12 11 13 13 13 13 13 11 6 6 7 5 5 4 4 4 4 4 4
Wind_Direction
180 176 179 181 181 183 183 186 187 183 182 182 185 188 189 192 195 199 196 200 204 195 202 207 180 205 200 204 201 197 189 200 184 190 185 192 195 187 190 208 197 191 202
173 175 177 182 186 187 188 190 190 186 186 186 188 190 189 194 198 196 191 203 202 199 198 207 202 199 199 202 209 209 212 193 186 211 204 194 185 198 199 194 202 204 199
180 177 181 185 188 190 190 191 190 187 188 185 183 181 180 191 195 197 194 199 201 202 207 203 213 201 210 198 206 207 213 206 194 215 236 233 202 170 176 198 196 196 204
181 182 184 188 192 192 189 188 189 188 187 187 189 188 194 198 200 197 192 193 199 202 205 208 208 209 214 197 209 205 212 213 207 195 238 285 345 237 175 187 183 187 200
179 183 185 188 191 188 187 184 184 186 190 195 195 196 202 203 196 195 190 198 197 202 206 206 204 205 212 208 218 196 220 212 219 207 200 202 208 244 235 181 178 177 184
177 176 177 180 185 184 182 181 181 186 190 194 197 201 203 202 199 197 192 200 197 198 202 203 203 207 208 202 210 208 207 226 227 239 219 213 214 226 227 208 203 183 168
174 171 173 177 179 182 180 179 180 186 190 193 197 201 201 202 204 203 200 203 200 197 197 200 201 206 202 205 207 206 213 206 206 223 228 231 238 247 254 259 237 208 178
172 169 169 171 176 178 179 179 181 186 190 193 198 201 202 206 207 206 202 205 206 201 191 195 195 197 198 203 199 204 202 202 207 213 226 237 242 249 253 265 266 243 220
168 165 164 165 168 172 175 179 180 186 191 194 195 200 203 209 207 200 202 203 203 199 190 192 191 192 193 197 198 204 202 198 206 200 198 228 225 240 249 259 269 275 264
169 164 164 166 165 166 169 175 180 186 190 191 195 198 201 202 200 197 197 199 198 193 188 191 189 190 189 188 197 195 193 193 197 208 195 228 229 231 248 260 265 276 285
168 164 162 161 163 164 166 171 177 183 186 188 190 195 198 196 194 193 194 193 191 188 189 191 188 189 188 187 191 196 183 191 183 185 183 193 255 234 243 258 275 285 289
161 161 158 158 164 167 169 173 177 182 184 184 184 186 191 195 193 191 190 187 187 185 185 186 186 187 185 183 186 191 184 185 180 179 172 173 169 162 296 322 325 343 335
160 160 161 165 166 168 169 171 178 180 180 179 180 179 184 185 184 183 179 178 180 178 179 183 184 184 181 180 182 178 172 163 153 145 142 136 129 121 90 53 46 31 31
163 165 164 165 166 169 171 172 174 176 179 178 180 180 180 177 174 171 168 169 169 170 172 174 174 174 173 169 160 150 136 122 108 100 97 92 90 88 85 78 61 54 60
165 167 166 165 168 168 171 173 172 171 175 178 180 179 174 171 166 159 156 155 154 155 152 149 147 148 153 152 142 136 127 119 110 100 92 84 77 65 60 62 56 56 59
166 166 167 169 173 173 174 175 174 173 175 179 181 173 166 165 163 157 150 144 140 138 136 134 131 125 123 108 114 125 124 121 117 110 102 96 87 81 74 67 59 51 53
159 165 168 171 174 177 178 177 176 175 175 175 172 167 165 163 160 155 149 144 140 135 129 125 120 116 112 109 111 112 120 117 114 113 111 105 98 97 95 88 81 67 56
147 151 157 165 173 177 177 177 174 175 174 171 168 165 162 157 153 148 144 141 138 133 127 125 122 118 113 111 111 110 110 106 103 102 102 103 100 94 99 98 87 77 63
140 143 148 158 168 175 177 177 174 172 172 170 166 163 159 153 148 146 141 137 131 124 120 119 119 118 115 110 113 113 112 107 102 98 96 101 101 79 90 103 98 92 91
122 128 139 151 158 172 177 174 174 172 173 167 159 155 152 146 141 138 134 128 124 121 117 112 112 117 118 109 112 119 121 118 114 107 97 86 91 74 60 98 98 92 80
117 122 130 131 150 170 172 170 168 172 167 155 150 147 143 139 135 129 127 125 122 117 113 108 104 106 110 108 101 108 127 129 125 117 108 97 85 76 62 66 75 66 39
115 118 121 120 131 159 166 165 166 162 152 144 138 136 133 131 129 126 124 124 124 120 117 113 106 101 101 101 97 91 94 109 118 114 111 107 97 85 74 76 67 345 312
120 125 126 120 112 132 156 157 155 149 140 132 128 124 121 120 124 126 127 125 126 126 127 123 117 110 103 94 90 90 89 91 102 104 107 116 125 120 97 91 42 342 46
124 125 123 117 105 97 116 130 136 137 133 128 123 122 120 118 115 116 121 126 129 129 127 124 121 117 114 115 117 114 110 111 111 115 121 125 119 113 114 136 93 62 49
113 116 121 120 114 111 113 121 131 133 129 124 122 120 117 114 106 93 82 99 87 106 124 127 127 128 124 113 105 123 126 126 124 135 139 137 132 117 102 88 69 58 53
114 116 118 118 117 117 116 120 129 131 129 124 123 121 119 116 113 107 89 66 76 73 74 82 104 102 107 112 103 97 96 103 137 148 128 123 117 106 96 87 79 64 48
Height
1503 1505 1507 1509 1511 1514 1517 1519 1522 1526 1529 1533 1537 1541 1545 1548 1551 1554 1557 1559 1562 1564 1566 1569 1569 1571 1573 1574 1576 1577 1577 1579 1580 1581 1582 1583 1584 1585 1585 1586 1587 1588 1589
1502 1503 1505 1507 1509 1511 1514 1517 1520 1523 1527 1530 1535 1539 1543 1546 1549 1552 1554 1557 1560 1562 1565 1566 1568 1570 1571 1572 1574 1575 1577 1578 1579 1580 1581 1582 1584 1583 1584 1585 1585 1586 1587
1499 1502 1503 1505 1507 1509 1512 1515 1517 1520 1524 1528 1533 1537 1540 1543 1547 1549 1552 1555 1557 1560 1562 1564 1567 1568 1570 1571 1572 1573 1575 1577 1578 1579 1580 1580 1580 1581 1583 1583 1584 1585 1586
1498 1500 1502 1503 1505 1507 1510 1512 1515 1518 1521 1526 1530 1533 1536 1540 1543 1547 1550 1552 1555 1558 1560 1562 1564 1566 1568 1569 1571 1572 1574 1575 1576 1577 1578 1580 1579 1580 1581 1582 1583 1583 1584
1496 1498 1500 1501 1503 1505 1508 1510 1513 1516 1519 1523 1527 1530 1534 1538 1541 1545 1547 1550 1553 1555 1558 1560 1562 1563 1566 1567 1569 1570 1572 1574 1575 1576 1577 1578 1579 1579 1580 1580 1582 1582 1583
1495 1497 1499 1500 1502 1504 1506 1508 1511 1514 1517 1520 1524 1527 1531 1534 1538 1541 1544 1548 1551 1553 1555 1557 1559 1561 1564 1565 1567 1568 1570 1571 1573 1574 1576 1577 1578 1578 1579 1579 1580 1581 1582
1493 1496 1498 1499 1501 1502 1504 1506 1509 1512 1515 1518 1521 1524 1528 1531 1534 1538 1541 1545 1548 1550 1552 1555 1557 1559 1561 1563 1565 1566 1568 1569 1570 1572 1574 1576 1577 1577 1578 1579 1579 1580 1581
1492 1494 1496 1498 1500 1501 1503 1505 1507 1510 1513 1516 1519 1522 1525 1529 1532 1535 1538 1541 1545 1548 1550 1552 1554 1556 1558 1561 1562 1565 1566 1567 1569 1570 1572 1574 1575 1576 1577 1578 1578 1578 1579
1491 1493 1496 1497 1499 1501 1503 1505 1507 1509 1512 1515 1517 1520 1522 1526 1529 1531 1535 1538 1541 1544 1547 1549 1551 1554 1556 1558 1560 1562 1563 1565 1567 1569 1570 1572 1573 1574 1575 1576 1577 1577 1576
1490 1492 1495 1497 1499 1501 1502 1504 1506 1508 1511 1513 1515 1517 1520 1522 1525 1528 1531 1534 1537 1541 1543 1546 1549 1551 1553 1555 1557 1559 1561 1562 1564 1566 1567 1569 1571 1572 1573 1574 1575 1575 1575
1488 1491 1494 1496 1498 1500 1502 1504 1505 1507 1509 1511 1513 1516 1518 1520 1522 1524 1527 1530 1534 1537 1540 1543 1546 1548 1551 1553 1554 1557 1558 1560 1562 1564 1565 1567 1568 1570 1571 1572 1572 1573 1573
1487 1490 1493 1495 1497 1499 1501 1503 1504 1506 1508 1510 1512 1514 1515 1517 1520 1522 1524 1527 1530 1533 1537 1540 1543 1546 1548 1550 1552 1555 1557 1559 1560 1562 1564 1565 1566 1567 1568 1569 1569 1570 1570
1487 1490 1492 1494 1496 1498 1500 1502 1503 1505 1507 1508 1510 1512 1514 1515 1517 1519 1522 1525 1528 1532 1535 1538 1541 1543 1546 1548 1550 1553 1555 1557 1558 1560 1561 1562 1564 1564 1565 1566 1567 1567 1567
1486 1489 1491 1493 1495 1497 1498 1500 1502 1503 1505 1507 1509 1510 1512 1514 1516 1518 1521 1524 1527 1530 1532 1535 1538 1541 1543 1546 1548 1550 1552 1554 1556 1557 1559 1560 1561 1562 1563 1563 1564 1564 1565
1485 1488 1490 1492 1494 1495 1497 1499 1500 1502 1503 1505 1507 1508 1510 1512 1515 1517 1519 1522 1525 1528 1531 1533 1536 1538 1541 1543 1545 1548 1550 1552 1553 1555 1557 1558 1559 1560 1561 1562 1562 1562 1563
1484 1487 1489 1491 1492 1494 1495 1497 1499 1500 1501 1503 1505 1507 1509 1511 1513 1515 1518 1520 1523 1526 1529 1531 1534 1536 1539 1541 1544 1546 1548 1550 1552 1554 1555 1557 1558 1559 1560 1560 1560 1561 1561
1483 1485 1487 1489 1490 1492 1494 1495 1497 1498 1500 1501 1503 1504 1507 1509 1511 1513 1516 1518 1521 1524 1526 1529 1532 1535 1537 1539 1542 1545 1547 1549 1551 1553 1554 1556 1556 1558 1558 1559 1559 1559 1559
1481 1483 1485 1487 1489 1490 1492 1494 1495 1496 1498 1499 1501 1503 1505 1507 1509 1511 1514 1517 1520 1522 1525 1528 1531 1534 1536 1538 1541 1543 1546 1548 1550 1552 1553 1554 1555 1557 1558 1559 1559 1558 1558
1480 1482 1484 1486 1487 1488 1490 1492 1493 1494 1496 1498 1499 1501 1503 1505 1507 1510 1512 1515 1518 1521 1524 1527 1530 1532 1535 1538 1540 1543 1545 1547 1549 1551 1552 1554 1555 1556 1557 1558 1558 1558 1558
1480 1481 1483 1484 1485 1486 1488 1490 1491 1492 1494 1496 1498 1500 1502 1504 1506 1508 1511 1514 1516 1519 1523 1526 1529 1532 1534 1537 1540 1543 1545 1546 1548 1550 1552 1554 1555 1556 1557 1558 1558 1558 1558
1479 1480 1481 1482 1484 1485 1486 1488 1489 1491 1493 1495 1497 1499 1501 1503 1505 1508 1510 1513 1516 1519 1522 1525 1528 1531 1534 1537 1539 1542 1544 1546 1548 1550 1551 1553 1554 1556 1557 1557 1558 1557 1557
1478 1479 1480 1481 1482 1483 1484 1485 1487 1489 1491 1493 1495 1498 1500 1502 1505 1507 1509 1512 1515 1519 1522 1524 1527 1530 1533 1536 1539 1541 1543 1546 1548 1550 1551 1552 1554 1555 1555 1556 1556 1557 1558
1477 1478 1479 1479 1480 1481 1482 1483 1485 1487 1489 1491 1493 1496 1499 1502 1504 1506 1509 1512 1515 1518 1521 1524 1527 1530 1533 1536 1539 1541 1543 1545 1547 1549 1550 1552 1554 1555 1555 1556 1556 1557 1558
1476 1477 1477 1478 1478 1479 1480 1481 1483 1485 1487 1489 1492 1495 1498 1501 1504 1507 1510 1512 1515 1518 1521 1523 1526 1530 1533 1536 1539 1541 1543 1545 1547 1549 1550 1552 1554 1555 1556 1557 1558 1558 1557
1474 1475 1475 1476 1477 1477 1478 1480 1481 1484 1486 1488 1491 1494 1497 1500 1503 1507 1510 1513 1516 1518 1521 1524 1527 1530 1533 1536 1539 1541 1544 1546 1548 1550 1552 1555 1557 1558 1558 1559 1559 1559 1558
1472 1473 1473 1474 1475 1476 1477 1478 1480 1483 1485 1487 1491 1494 1497 1501 1504 1506 1510 1514 1517 1520 1523 1526 1529 1532 1535 1537 1540 1543 1545 1547 1549 1552 1554 1556 1558 1558 1559 1559 1559 1559 1558